This is the latest recevied weather packets stored in our database for station/object W8LMG. If no packets are shown the sender has not sent any weather packets the latest 10 day(s).
| Time | Temp. | Humidity | Pressure | Rain* | Wind** | Luminosity | Snow |
|---|---|---|---|---|---|---|---|
| 1777502437 | 15.56° C | 99% | 1008.7 hPa | 0 mm | - | 88 W/m² | - |
| 1777502134 | 15.56° C | 99% | 1008.6 hPa | 0 mm | - | 93 W/m² | - |
| 1777501832 | 15.56° C | 99% | 1008.5 hPa | 1.78 mm | - | 125 W/m² | - |
| 1777501529 | 15.56° C | 99% | 1008.6 hPa | 21.59 mm | - | 117 W/m² | - |
| 1777501226 | 15° C | 99% | 1008.5 hPa | 23.88 mm | - | 69 W/m² | - |
| 1777500924 | 15° C | 99% | 1008.5 hPa | 6.1 mm | - | 18 W/m² | - |
| 1777500621 | 15° C | 99% | 1008.1 hPa | 0 mm | - | 4 W/m² | - |
| 1777500318 | 15° C | 99% | 1008.2 hPa | 1.78 mm | - | 7 W/m² | - |
| 1777500014 | 15° C | 99% | 1007.6 hPa | 1.78 mm | - | 13 W/m² | - |
| 1777499710 | 15° C | 99% | 1008.2 hPa | 0 mm | - | 9 W/m² | - |
| 1777499407 | 15° C | 99% | 1008.2 hPa | 0 mm | - | 7 W/m² | - |
| 1777499106 | 15.56° C | 99% | 1008.2 hPa | 0 mm | - | 10 W/m² | - |
| 1777498802 | 15.56° C | 99% | 1008.1 hPa | 8.89 mm | - | 15 W/m² | - |
| 1777498498 | 15.56° C | 99% | 1008.1 hPa | 14.99 mm | - | 24 W/m² | - |
| 1777498194 | 16.11° C | 99% | 1008.2 hPa | 7.87 mm | - | 11 W/m² | - |
| 1777497893 | 16.11° C | 99% | 1008.3 hPa | 1.78 mm | - | 8 W/m² | - |
| 1777497588 | 16.11° C | 99% | 1008 hPa | 1.27 mm | - | 14 W/m² | - |
| 1777497285 | 16.11° C | 99% | 1008.1 hPa | 3.05 mm | - | 25 W/m² | - |
| 1777496981 | 16.67° C | 99% | 1008 hPa | 1.78 mm | - | 25 W/m² | - |
| 1777496679 | 16.67° C | 99% | 1008.2 hPa | 1.78 mm | - | 18 W/m² | - |
| 1777496375 | 16.67° C | 99% | 1007.8 hPa | 0 mm | - | 18 W/m² | - |
| 1777496071 | 16.67° C | 99% | 1007.6 hPa | 0 mm | - | 22 W/m² | - |
| 1777495767 | 16.67° C | 99% | 1007.7 hPa | 0 mm | - | 25 W/m² | - |
| 1777495464 | 16.67° C | 99% | 1007.7 hPa | 0 mm | - | 23 W/m² | - |
| 1777495160 | 16.67° C | 99% | 1008.1 hPa | 0 mm | - | 31 W/m² | - |
* Rain latest hour (hover to see other rain measurements)
** Current wind speed in m/s (hover to see current wind gust speed)